Flag for Poland Weather past 2 weeks in Wroclaw, Poland

Now
61 °F

Clear.


Feels Like: 61 °F
Forecast: 59 / 71 °F
Wind: 1 mph from West

Location: Wroclaw Ii

Current Time: Jul 28, 2015 at 11:47:21 PM

Latest Report: Jul 28, 2015 at 11:00 PM


Visibility: 10 mi

Pressure: 29.80 "Hg

Humidity: 68%

Dew point: 50 °F

Location of WroclawLocation

Historic Weather in Wroclaw — Graph

°F

Wroclaw temperature yesterday

Maximum temperature yesterday: 75 °F (at 3:00 PM)
Minimum temperature yesterday: 54 °F (at 5:00 AM)
Average temperature yesterday: 63 °F

Past Weeks' High & Low Weather Summary

 TemperatureHumidityPressure
High93 °F (Jul 18, 12:00 PM)100% (Jul 14, 4:30 AM)30.12 "Hg (Jul 14, 4:30 AM)
Low54 °F (Jul 16, 4:30 AM)16% (Jul 21, 8:30 AM)29.65 "Hg (Jul 25, 12:00 PM)
Average72 °F67%29.92 "Hg
* Reported Jul 13 10:00 PM — Jul 28 10:30 PM, Wroclaw, Weather by CustomWeather, © 2015

Note: Actual official high and low records may vary slightly from our data, if they occured in-between our weather recording intervals... More about our weather records

Advertising

Wroclaw weather history for previous 24 hours

 ConditionsComfort  
Time TempWeatherWind HumidityBarometerVisibility
10:30 PM
Tue, Jul 28
63 °FClear.2 mph68%29.77 "Hg10 mi
10:00 PM64 °FClear.5 mph52%29.77 "Hg10 mi
9:30 PM66 °FSunny.7 mph49%29.77 "Hg10 mi
9:00 PM68 °FSunny.5 mph49%29.77 "Hg10 mi
8:30 PM68 °FSunny.7 mph49%29.77 "Hg10 mi
8:00 PM70 °FSunny.8 mph50%29.74 "Hg10 mi
7:30 PM70 °FSunny.10 mph50%29.74 "Hg10 mi
7:00 PM72 °FSunny.16 mph41%29.71 "Hg10 mi
6:30 PM73 °FPassing clouds.8 mph44%29.71 "HgN/A
6:00 PM73 °FPassing clouds.13 mph47%29.71 "HgN/A
5:30 PM73 °FPassing clouds.13 mph47%29.71 "HgN/A
5:00 PM72 °FPassing clouds.14 mph53%29.71 "HgN/A
4:30 PM70 °FScattered clouds.7 mph64%29.71 "HgN/A
4:00 PM70 °FPassing clouds.8 mph64%29.71 "HgN/A
3:30 PM64 °FPassing clouds.6 mph78%29.74 "HgN/A
3:00 PM64 °FSprinkles. Passing clouds.6 mph78%29.74 "HgN/A
2:30 PM63 °FSprinkles. Passing clouds.7 mph83%29.74 "HgN/A
2:00 PM61 °FRain showers. Scattered clouds.10 mph88%29.74 "HgN/A
1:30 PM61 °FRain showers. Partly sunny.18 mph88%29.74 "HgN/A
1:00 PM73 °FSprinkles. Scattered clouds.8 mph44%29.71 "HgN/A
12:30 PM75 °FPassing clouds.8 mph41%29.71 "HgN/A
12:00 PM73 °FPassing clouds.12 mph47%29.71 "HgN/A
11:30 AM72 °FPassing clouds.12 mph50%29.71 "HgN/A
11:00 AM72 °FPassing clouds.14 mph50%29.71 "HgN/A
10:30 AM72 °FScattered clouds.10 mph53%29.71 "HgN/A
10:00 AM72 °FScattered clouds.10 mph53%29.71 "HgN/A
9:30 AM72 °FPassing clouds.6 mph57%29.71 "HgN/A
9:00 AM70 °FPassing clouds.7 mph60%29.71 "HgN/A
8:30 AM66 °FPassing clouds.7 mph68%29.71 "HgN/A
8:00 AM66 °FPassing clouds.7 mph68%29.71 "HgN/A
7:30 AM64 °FSunny.8 mph73%29.71 "Hg10 mi
7:00 AM63 °FPassing clouds.6 mph77%29.71 "HgN/A
6:30 AM63 °FPassing clouds.6 mph77%29.71 "HgN/A
6:00 AM63 °FPassing clouds.6 mph77%29.71 "HgN/A
5:30 AM59 °FPassing clouds.5 mph88%29.71 "HgN/A
5:00 AM61 °FClear.5 mph83%29.71 "Hg10 mi
4:30 AM61 °FPassing clouds.3 mph83%29.71 "HgN/A
4:00 AM61 °FPassing clouds.5 mph83%29.71 "HgN/A
3:30 AM61 °FClear.5 mph83%29.71 "Hg10 mi
3:00 AM63 °FClear.5 mph77%29.71 "Hg10 mi
2:30 AM63 °FPassing clouds.6 mph83%29.71 "HgN/A
2:00 AM63 °FPassing clouds.7 mph77%29.71 "HgN/A
1:30 AM61 °FPassing clouds.6 mph83%29.71 "HgN/A
1:00 AM61 °FPassing clouds.6 mph88%29.71 "HgN/A
12:30 AM61 °FPassing clouds.5 mph88%29.71 "HgN/A
12:00 AM61 °FPassing clouds.5 mph88%29.71 "HgN/A
11:30 PM
Mon, Jul 27
59 °FClear.5 mph94%29.71 "Hg10 mi
11:00 PM61 °FClear.5 mph88%29.71 "Hg10 mi
Weather by CustomWeather, © 2015

See weather overviewHow to use our weather pages